Home > Weather > Los Angeles > Past weeks

Flag for USA Weather for the Past 2 Weeks in Los Angeles, California, USA

Now
60 °F

Passing clouds.


Feels Like: 60 °F
Forecast: 56 / 64 °F
Wind: 5 mph from West

Location: Los Angeles / USC Campus Downtown

Current Time: May 4, 2016 at 9:54:05 PM

Latest Report: May 4, 2016 at 8:47 PM


Visibility: 10 mi

Pressure: 29.93 "Hg

Humidity: 75%

Dew Point: 52 °F

Location of Los AngelesLocation

Historic Weather in Los Angeles — Graph

°F

Los Angeles Temperature Yesterday

Maximum temperature yesterday: 76 °F (at 1:47 PM)
Minimum temperature yesterday: 58 °F (at 4:47 AM)
Average temperature yesterday: 65 °F

High & Low Weather Summary for the Past Weeks

 TemperatureHumidityPressure
High85 °F (Apr 20, 11:47 AM)90% (May 2, 4:47 AM)30.03 "Hg (May 2, 4:47 AM)
Low54 °F (Apr 26, 3:47 AM)12% (Apr 20, 11:47 AM)29.71 "Hg (Apr 27, 8:47 PM)
Average64 °F62%29.90 "Hg
* Reported Apr 19 8:47 PM — May 4 8:47 PM, Los Angeles, Weather by CustomWeather, © 2016

Note: Actual official high and low records may vary slightly from our data, if they occured in-between our weather recording intervals... More about our weather records

Advertising

Los Angeles Weather History for the Previous 24 Hours

Scroll right to see more
 ConditionsComfort  
Time TempWeatherWind HumidityBarometerVisibility
8:47 PM
Wed, May 4
60 °FPassing clouds.5 mph75%29.93 "Hg10 mi
7:58 PM61 °FPartly sunny.5 mph72%29.92 "Hg10 mi
7:47 PM61 °FPassing clouds.7 mph72%29.90 "Hg10 mi
6:47 PM62 °FSunny.3 mph70%29.89 "Hg10 mi
5:47 PM64 °FSunny.3 mph65%29.89 "Hg10 mi
4:47 PM67 °FSunny.5 mph63%29.88 "Hg10 mi
3:57 PM66 °FScattered clouds.5 mph65%29.90 "Hg10 mi
2:47 PM66 °FOvercast.6 mph65%29.91 "Hg10 mi
1:47 PM67 °FScattered clouds.8 mph63%29.92 "Hg10 mi
1:02 PM69 °FScattered clouds.3 mph63%29.92 "Hg9 mi
12:47 PM69 °FPartly sunny.No wind63%29.92 "Hg8 mi
11:47 AM65 °FOvercast.No wind70%29.93 "Hg6 mi
10:47 AM61 °FOvercast.No wind81%29.96 "Hg6 mi
9:47 AM59 °FFog.3 mph87%29.96 "Hg5 mi
8:47 AM60 °FOvercast.No wind83%29.97 "Hg3 mi
7:47 AM60 °FOvercast.No wind83%29.94 "Hg3 mi
6:47 AM59 °FLow clouds.No wind84%29.93 "Hg5 mi
5:47 AM58 °FFog.No wind90%29.93 "Hg4 mi
4:59 AM57 °FLow clouds.No wind90%29.93 "Hg8 mi
3:47 AM57 °FOvercast.No wind90%29.92 "Hg7 mi
3:03 AM57 °FFog.No wind90%29.94 "Hg6 mi
2:47 AM57 °FClear.No wind90%29.94 "Hg7 mi
1:47 AM57 °FClear.No wind87%29.95 "Hg9 mi
12:47 AM58 °FClear.No wind87%29.96 "Hg10 mi
11:47 PM
Tue, May 3
58 °FClear.No wind87%29.95 "Hg10 mi
10:47 PM58 °FClear.No wind87%29.96 "Hg9 mi
9:53 PM58 °FPassing clouds.No wind87%29.96 "Hg10 mi
Weather by CustomWeather, © 2016

See weather overviewHow to use our weather pages